User: anonymous   Login
Location: Kitchener
(43.4500°N, 80.5000°W)
Time: 04:48:15
(UTC-04:00)
Language:

Cosmos 1939 Rocket - Orbit

View from above orbital plane
View from above orbital plane
View from above satellite
View from above satellite

Ground track
Ground track

The orbit data is extracted from the following two-line orbital elements,

1 19046U 88032B   15107.77672688  .00003181  00000-0  24976-3 0  9990
2 19046 097.6197 161.5040 0042857 144.9376 215.4683 15.00898060453860
Epoch (UTC): 17 April 2015 18:38:29
Eccentricity: 0.0042857
inclination: 97.6197°
perigee height: 534 km
apogee height: 594 km
right ascension of ascending node: 161.5040°
argument of perigee: 144.9376°
revolutions per day: 15.00898060
mean anomaly at epoch: 215.4683°
orbit number at epoch: 45386

The dashed part of the orbit path shows where the satellite is in the earth's shadow,  

DLR